Tracking 28790 objects as of 19-Apr-2024
HD Live streaming from Space Station
objects crossing your sky now

NOAA 17 DEB

Track NOAA 17 DEB now!
10-day predictions


NORAD ID: 48739
Int'l Code: 2002-032BZ
Perigee: 659.5 km
Apogee: 713.9 km
Inclination: 98.8 °
Period: 98.3 minutes
Semi major axis: 7057 km
RCS: Unknown
Launch date: June 24, 2002
Source: United States (US)
Launch site: AIR FORCE WESTERN TEST RANGE (AFWTR)

Note: This is SATELLITE DEBRIS
Your satellite tracking list
Your tracking list is empty




NASA's NSSDC Master Catalog

Two Line Element Set (TLE):
1 48739U 02032BY  24109.44905163  .00039438  00000-0  73759-2 0  9996
2 48739  98.8026 113.4445 0038517 209.8856 150.0145 14.64230857162117
Source of the keplerian elements: AFSPC